www.pogodaiklimat.ru

Погода и климат >> Архив погоды >> Южная Африка >> Punda Maria


ПОГОДА в Punda Maria

  • Прогноз погоды в Punda Maria
  • Монитор погоды в Punda Maria

АРХИВ ПОГОДЫ в Punda Maria

Время (UTC), дата Ветер
(напр.,м/с)
 
Видим.   Явления Облачность Т
(С)
Тd
(С)
f
(%)
Тe
(С)
Тes
(С)
Комфортность P
(гПа)
Po
(гПа)
Тmin
(С)
Tmax
(С)
R
(мм)
R24
(мм)
S
(см)
00 19.08 штиль 0 н/о н/о +16.1 +9.8 66 +16 +16 969.5 +16.1 +24.8
03 19.08 СЗ 1 н/о н/о +15.3 +9.9 70 +16 +16 968.7 +15.3 +24.8
06 19.08 штиль 0 н/о н/о +18.5 +10.9 61 +19 +19 969.8 +14.9
09 19.08 З 2 н/о н/о +25.7 +10.9 39 +27 +27 жарко 969.5 +14.9 +25.9
12 19.08 С 1 н/о н/о +30.3 +5.9 21 +29 +29 жарко 966.2 +14.9 +30.4
15 19.08 СЗ 1 н/о н/о +28.3 +2.8 19 +26 +26 жарко 965.9 +28.3 +30.4
18 19.08 С 1 н/о н/о +24.1 +2.5 24 +23 +23 комфорт 966.5 +22.5 +30.4
21 19.08 штиль 0 н/о н/о +20.0 +3.4 33 +20 +20 967.1 +20.0 +30.4
00 20.08 Ю 2 н/о н/о +20.5 +2.5 30 +22 +22 комфорт 967.7 +19.0 +30.4
03 20.08 Ю 3 н/о н/о +18.6 +14.5 77 +20 +20 970.4 +18.1 +30.4
06 20.08 ЮВ 3 н/о н/о +18.5 +14.2 76 +19 +19 972.9 +18.0
09 20.08 ЮВ 2 н/о н/о +19.2 +13.0 67 +21 +21 комфорт 974.1 +18.0 +19.2
12 20.08 ЮВ 3 н/о н/о +20.7 +12.7 60 +23 +23 комфорт 972.9 +18.0 +20.9
15 20.08 ЮВ 2 н/о н/о +20.5 +12.0 58 +23 +23 комфорт 973.2 +20.3 +21.3
18 20.08 ЮВ 2 н/о н/о +18.8 +11.7 63 +20 +20 975.2 +18.8 +21.3
21 20.08 ЮВ 2 н/о н/о +17.5 +11.6 68 +18 +18 976.1 +17.5 +21.3
00 21.08 ЮВ 2 н/о н/о +15.1 +11.3 78 +15 +15 976.1 +15.1 +21.3
03 21.08 Ю 1 н/о н/о +15.0 +11.8 81 +15 +15 976.0 +14.0 +21.3
06 21.08 ЮВ 2 н/о н/о +14.9 +11.8 82 +15 +15 977.8 +14.0
09 21.08 ЮВ 2 н/о н/о +20.3 +11.3 56 +23 +23 комфорт 977.7 +14.0 +20.3
12 21.08 ЮВ 2 н/о н/о +20.8 +9.5 48 +23 +23 комфорт 975.2 +14.0 +21.0
15 21.08 ЮВ 2 н/о н/о +21.7 +8.4 42 +23 +23 комфорт 974.3 +20.9 +22.6
18 21.08 штиль 0 н/о н/о +18.1 +9.0 55 +18 +18 974.9 +18.1 +22.6
21 21.08 штиль 0 н/о н/о +15.6 +8.1 61 +15 +15 975.1 +15.6 +22.6
03 22.08 штиль 0 н/о н/о +14.0 +9.2 73 +14 +14 974.6 +12.7 +22.6
06 22.08 ЮВ 1 н/о н/о +14.9 +10.7 76 +15 +15 976.0 +12.7
09 22.08 Ю 2 н/о н/о +19.4 +10.2 55 +21 +21 комфорт 975.0 +12.7 +20.0
12 22.08 Ю 2 н/о н/о +22.1 +8.7 42 +23 +23 комфорт 971.9 +12.7 +22.1
15 22.08 ЮВ 1 н/о н/о +22.0 +7.5 39 +23 +23 комфорт 971.2 +21.6 +22.8
18 22.08 штиль 0 н/о н/о +17.5 +7.3 51 +18 +18 972.2 +17.5 +22.8
21 22.08 штиль 0 н/о н/о +15.6 +7.2 57 +16 +16 972.3 +15.3 +22.8
00 23.08 СЗ 2 н/о н/о +14.0 +6.6 61 +14 +14 971.7 +14.0 +22.8
03 23.08 штиль 0 н/о н/о +13.2 +6.3 63 +13 +13 971.3 +13.0 +22.8
06 23.08 штиль 0 н/о н/о +16.2 +8.0 58 +16 +16 972.9 +9.8
09 23.08 В 2 н/о н/о +23.0 +8.1 38 +24 +24 комфорт 972.9 +9.8 +23.1
12 23.08 В 1 н/о н/о +26.8 +6.5 27 +26 +26 жарко 970.1 +9.8 +26.8
15 23.08 ЮВ 2 н/о н/о +25.7 +6.0 28 +25 +25 комфорт 969.6 +25.7 +26.8
18 23.08 штиль 0 н/о н/о +21.1 +4.3 33 +21 +21 комфорт 971.2 +21.1 +26.8
21 23.08 штиль 0 н/о н/о +17.2 +5.2 45 +17 +17 971.2 +17.2 +26.8
00 24.08 штиль 0 н/о н/о +15.7 +5.9 52 +16 +16 971.9 +15.3 +26.8
06 24.08 штиль 0 н/о н/о +16.0 +9.5 65 +16 +16 973.8 +11.9
09 24.08 В 2 н/о н/о +22.1 +10.4 47 +24 +24 комфорт 973.2 +11.9 +22.2
12 24.08 ЮВ 2 н/о н/о +25.5 +9.5 36 +26 +26 жарко 970.0 +11.9 +25.8
15 24.08 В 1 н/о н/о +25.1 +9.2 36 +26 +26 жарко 969.0 +25.0 +26.3
18 24.08 штиль 0 н/о н/о +20.4 +9.4 49 +22 +22 комфорт 970.5 +20.4 +26.3
21 24.08 штиль 0 н/о н/о +17.9 +9.3 57 +18 +18 970.9 +17.9 +26.3
00 25.08 штиль 0 н/о н/о +18.3 +9.4 56 +19 +19 969.4 +17.9 +26.3
03 25.08 штиль 0 н/о н/о +16.9 +8.9 59 +17 +17 969.3 +16.9 +26.3
06 25.08 штиль 0 н/о н/о +19.4 +9.7 53 +20 +20 970.9 +15.1
09 25.08 В 1 н/о н/о +26.5 +10.8 37 +27 +27 жарко 970.1 +15.1 +27.0
12 25.08 СЗ 2 н/о н/о +28.8 +7.1 25 +28 +28 жарко 966.6 +15.1 +29.4
15 25.08 В 1 н/о н/о +27.2 +8.8 31 +27 +27 жарко 965.6 +27.2 +29.4
18 25.08 штиль 0 н/о н/о +23.3 +8.3 38 +24 +24 комфорт 966.3 +22.7 +29.4

 

Местоположение метеостанции Punda Maria (Южная Африка): широта -22.68 долгота 31.02 высота над уровнем моря 457 м.

В архиве по умолчанию представлена погода в Punda Maria за последнюю неделю. Архивные данные за месяц целиком и за предыдущие месяцы, начиная с января 2011 года, Вы можете получить, выбрав интересующий диапазон дат из раскрывающегося списка и нажав кнопку "Ввод!".


*Определитесь, кто Вы:
робот инопланетянин человек

Внимание! Время в таблицах - всемирное. Для получения местного времени необходимо прибавить поправку, которая равна 2 ч.

Смотрите также архив погоды в соседних городах и на ближайших метеорологических станциях:

Погода в Тхохояндоу (Южная Африка) (62 км)
Погода в Тхохояндоу (Южная Африка) (78 км)
Погода в Левубу (Южная Африка) (88 км)
Погода в Байтбридже (Зимбабве) (117 км)
Погода в Пхалаборве (Южная Африка) (141 км)
Погода в Тзанеен-Греншоек (Южная Африка) (154 км)
Погода в Тзанеене (Южная Африка) (156 км)
Погода в Маре (Южная Африка) (157 км)
Погода в Ньоняне (Свазиленд) (179 км)
Погода в Вувулане (Свазиленд) (183 км)

Пояснения к столбцам:

Ветер - указаны скорость ветра в м/с - средняя за 10 мин, порывы в срок и между сроками (в фигурных скобках) и направление, откуда дует ветер: С - северный, СВ - северо-восточный, В - восточный, ЮВ - юго-восточный, Ю - южный, ЮЗ - юго-западный, З - западный, СЗ - северо-западный.
Видимость - горизонтальная дальность видимости в метрах или километрах. При видимости от 1 до 10 км при отсутствии осадков обычно наблюдается дымка, при ухудшении видимости до 1 км и менее - туман. В сухую погоду видимость может ухудшаться дымом, пылью или мглою.
Явления - указаны атмосферные явления, наблюдавшиеся в срок или в последний час перед сроком; фигурными скобками обозначены явления, наблюдавшиеся между сроками (за 1-3 часа до срока); квадратными скобками обозначены град или гололедные отложения с указанием их диаметра в мм.
Облачность - указаны через наклонную черту общая и нижняя облачность в баллах и высота нижней границы облаков в метрах; квадратными скобками обозначены формы облаков: Ci - перистые, Cs - перисто-слоистые, Cc - перисто-кучевые, Ac - высококучевые, As - высокослоистые, Sc - слоисто-кучевые, Ns - слоисто-дождевые, Cu - кучевые, Cb - кучево-дождевые. Подробнее классификацию облаков см. в Атласе облаков (PDF).
T - Температура воздуха - температура, измеренная на высоте 2 м над землей.
Td - Температура точки росы - температура, при понижении до которой содержащийся в воздухе водяной пар достигнет насыщения.
f - Относительная влажность воздуха - влажноcть воздуха, измеренная на высоте 2 м над землей.
Te - Эффективная температура - температура, которую ощущает одетый по сезону человек в тени. Характеристика душности погоды. При расчете учитывается влияние влажности воздуха и скорости ветра на теплоощущения человека.
Tes - Эффективная температура на солнце - температура, которую ощущает человек, с поправкой на солнечный нагрев. Характеристика знойности погоды. Зависит от высоты солнца над горизонтом, облачности и скорости ветра. Ночью, в пасмурную погоду, а также при ветре 12 м/с и более поправка равна нулю.
P - Атмосферное давление - приведенное к уровню моря атмосферное давление.
Po - Атмосферное давление - измеренное на уровне метеостанции атмосферное давление.
Tmin - Минимальная температура - минимум температуры воздуха на высоте 2 м над землей.
Tmax - Максимальная температура - максимум температуры воздуха на высоте 2 м над землей.
R - Количество осадков - Количество выпавших осадков за период времени, мм. При наведении курсора мыши на число - период времени, за который выпало указанное количество осадков.
R24 - Количество осадков - Количество выпавших осадков за 24 часа, мм.
S - Снежный покров - Высота снежного покрова, см. При наведении курсора мыши на число - состояние снежного покрова и степень покрытия местности в баллах.